GW2624 Weather Reports


time (UTC)temp
C
wind
direction
speed
KPH
gust
KPH
rain 1hr
cm
rain 24hr
cm
rain mn
cm
humidity
%
barometer
mb
20260504002904 18 197 4.8 16.1 0.00 0.00 0.00 25 1007.7
20260504002404 18 183 8.0 16.1 0.00 0.00 0.00 25 1007.8
20260504001904 19 164 8.0 16.1 0.00 0.00 0.00 24 1007.7
20260504001404 19 157 8.0 16.1 0.00 0.00 0.00 25 1007.8
20260504000403 19 204 3.2 14.5 0.00 0.00 0.00 24 1007.9
20260503235905 19 155 4.8 19.3 0.00 0.00 0.00 24 1007.9
20260503235404 19 184 8.0 19.3 0.00 0.00 0.00 24 1008.0
20260503234904 19 148 9.7 19.3 0.00 0.00 0.00 24 1007.9
20260503234404 19 202 3.2 14.5 0.00 0.00 0.00 24 1007.9
20260503232904 20 199 6.4 19.3 0.00 0.00 0.00 24 1008.1
20260503230904 20 216 6.4 16.1 0.00 0.00 0.00 26 1008.3
20260503230404 20 148 3.2 16.1 0.00 0.00 0.00 25 1008.3
20260503225905 20 166 8.0 16.1 0.00 0.00 0.00 24 1008.5
20260503224904 20 177 4.8 11.3 0.00 0.00 0.00 25 1008.5
20260503223904 19 165 4.8 16.1 0.00 0.00 0.00 24 1008.6
20260503222904 20 133 9.7 16.1 0.00 0.00 0.00 22 1008.9
20260503221904 20 239 4.8 14.5 0.00 0.00 0.00 23 1009.0
20260503220404 20 175 4.8 11.3 0.00 0.00 0.00 26 1009.3
20260503215904 19 306 1.6 4.8 0.00 0.00 0.00 25 1009.2
20260503214404 18 280 0.0 14.5 0.00 0.00 0.00 25 1009.6
20260503213905 18 190 4.8 14.5 0.00 0.00 0.00 25 1009.8
20260503212904 18 308 3.2 11.3 0.00 0.00 0.00 26 1009.9
20260503210904 19 212 3.2 9.7 0.00 0.00 0.00 25 1010.6
20260503210404 19 3 3.2 16.1 0.00 0.00 0.00 25 1010.6
20260503204904 20 194 3.2 12.9 0.00 0.00 0.00 25 1010.7
20260503203904 19 269 4.8 16.1 0.00 0.00 0.00 25 1011.0
20260503202905 18 193 8.0 16.1 0.00 0.00 0.00 26 1011.3
20260503201904 20 170 6.4 19.3 0.00 0.00 0.00 24 1011.5
20260503200904 20 307 4.8 16.1 0.00 0.00 0.00 24 1011.6
20260503195404 20 226 1.6 19.3 0.00 0.00 0.00 24 1011.9
20260503194905 20 31 3.2 14.5 0.00 0.00 0.00 24 1011.8
20260503193904 20 246 3.2 11.3 0.00 0.00 0.00 23 1012.3
20260503193404 20 268 3.2 8.0 0.00 0.00 0.00 23 1012.3
20260503190904 19 203 3.2 8.0 0.00 0.00 0.00 25 1012.8
20260503183906 18 5 3.2 11.3 0.00 0.00 0.00 25 1013.5
20260503183405 18 285 3.2 11.3 0.00 0.00 0.00 23 1013.8
20260503182905 18 208 4.8 11.3 0.00 0.00 0.00 23 1013.8
20260503182404 18 218 3.2 11.3 0.00 0.00 0.00 26 1013.9
20260503181904 18 258 4.8 4.8 0.00 0.00 0.00 26 1014.1
20260503180404 17 220 3.2 4.8 0.00 0.00 0.00 27 1014.3
20260503175404 17 21 3.2 9.7 0.00 0.00 0.00 30 1014.6
20260503174904 17 168 1.6 11.3 0.00 0.00 0.00 30 1014.7
20260503174404 17 264 3.2 11.3 0.00 0.00 0.00 31 1014.8
20260503171904 16 222 3.2 11.3 0.00 0.00 0.00 35 1015.1
20260503171405 16 309 1.6 11.3 0.00 0.00 0.00 38 1015.1
20260503170904 16 225 4.8 11.3 0.00 0.00 0.00 35 1015.1
20260503090404 4 147 0.0 1.6 0.00 0.00 0.00 77 1017.6
20260503081404 5 146 1.6 4.8 0.00 0.00 0.00 75 1017.6
20260503080904 5 146 0.0 3.2 0.00 0.00 0.00 74 1017.6
20260503072904 6 146 1.6 4.8 0.00 0.00 0.00 70 1017.9
20260503072404 6 146 3.2 4.8 0.00 0.00 0.00 70 1017.9
20260503071903 7 147 1.6 4.8 0.00 0.00 0.00 70 1017.9
20260503070403 7 146 1.6 4.8 0.00 0.00 0.00 70 1017.9
20260503053405 8 141 4.8 11.3 0.00 0.00 0.00 64 1018.0
20260503052404 8 148 4.8 12.9 0.00 0.00 0.00 63 1018.0
20260503051904 8 141 3.2 8.0 0.00 0.00 0.00 63 1018.0
20260503050904 8 135 3.2 11.3 0.00 0.00 0.00 63 1017.9
20260503045904 9 135 3.2 9.7 0.00 0.00 0.00 61 1018.0
20260503044404 9 143 3.2 8.0 0.00 0.00 0.00 58 1017.8
20260503043904 9 140 4.8 8.0 0.00 0.00 0.00 57 1017.8
20260503043404 10 133 1.6 8.0 0.00 0.00 0.00 55 1017.8
20260503041904 10 136 3.2 14.5 0.00 0.00 0.00 54 1017.8
20260503040404 11 143 8.0 19.3 0.00 0.00 0.00 54 1017.6
20260503035404 11 144 14.5 20.9 0.00 0.00 0.00 52 1017.5
20260503034404 11 161 9.7 19.3 0.00 0.00 0.00 50 1017.5
20260503033903 11 148 4.8 16.1 0.00 0.00 0.00 48 1017.4
20260503032904 11 134 9.7 19.3 0.00 0.00 0.00 45 1017.2
20260503032404 11 143 8.0 16.1 0.00 0.00 0.00 44 1017.1
20260503031404 10 139 3.2 9.7 0.00 0.00 0.00 44 1016.9
20260503025404 11 150 0.0 1.6 0.00 0.00 0.00 41 1016.7
20260503024904 11 150 0.0 1.6 0.00 0.00 0.00 39 1016.6
20260503023904 12 150 0.0 1.6 0.00 0.00 0.00 40 1016.5
20260503022903 12 150 1.6 4.8 0.00 0.00 0.00 37 1016.5
20260503021403 13 0 0.0 12.9 0.00 0.00 0.00 34 1016.7
20260503020403 13 155 1.6 8.0 0.00 0.00 0.00 32 1016.5
20260503015403 14 199 0.0 3.2 0.00 0.00 0.00 30 1016.4
20260503011404 16 0 3.2 8.0 0.00 0.00 0.00 26 1016.1
20260503010904 16 0 3.2 9.7 0.00 0.00 0.00 25 1016.2
20260503005904 16 203 3.2 14.5 0.00 0.00 0.00 25 1016.1
20260503005404 16 242 1.6 14.5 0.00 0.00 0.00 24 1016.1